Location: Elstree
(51.6403°N, 0.2969°W)
Time: 20:24:23
(UTC+00:00)

Terra - Pass Details

Date: 22 June 2021
Orbit: 701 x 703 km, 98.2° (Epoch: 04 August)

Event Time Altitude Azimuth Distance (km) Brightness Sun altitude
Exits shadow 22:07:33 11° 181° (S) 2,100 3.7 -10.7°
Maximum altitude 22:12:03 56° 259° (W) 838 2.3 -11.1°
Drops below altitude 10° 22:16:46 10° 338° (NNW) 2,184 5.9 -11.4°
Sets 22:19:05 0° 343° (NNW) 3,108 7.2 -11.5°
